Location: Anumalkud?ru
(16.4847°N, 80.6636°E)
Time: 00:59:51
(UTC+00:00)

Cosmos 2228 Rocket - Pass Details

Date: 11 April 2026
Orbit: 612 x 646 km, 82.5° (Epoch: 9 May)

Event Time Altitude Azimuth Distance (km) Brightness Sun altitude
Rises 13:53:07 0° 13° (NNE) 2,907 6.5 -15.2°
Reaches altitude 10° 13:55:40 10° 27° (NNE) 1,993 5.5 -15.8°
Enters shadow 13:58:49 25° 71° (ENE) 1,262 4.2 -16.5°
